GFSFLT2_con_lsi_000.txt.gz
Lid_Strength_Index
6 6 6 6 5 5 5 4 4 3 3 4 2 2 3 2 2 2 2 2 1 1 1 1 1 1 2 2 1 1 1 1
6 6 7 6 5 5 4 3 4 4 4 3 3 3 2 2 2 2 2 1 1 1 1 1 1 1 1 1 1 1 1 1
6 6 7 7 6 5 3 4 4 3 4 3 3 3 2 2 2 2 2 1 1 1 1 1 1 1 1 1 1 1 1 1
6 6 6 6 5 5 4 4 4 3 3 3 3 3 2 2 2 2 2 2 1 1 1 1 1 1 7 5 2 1 1 1
6 5 5 5 5 4 4 4 4 4 3 2 3 2 2 2 2 2 3 2 2 2 2 1 1 2 8 7 5 1 1 1
5 5 5 5 4 5 4 4 4 4 4 3 3 2 2 3 3 3 4 3 3 2 3 2 2 3 9 8 6 1 1 1
5 4 4 5 4 4 4 4 4 4 3 3 3 3 3 3 3 4 4 4 4 3 3 2 2 3 9 9 3 1 1 1
5 4 4 5 5 4 4 4 5 4 3 3 4 3 3 3 3 4 4 3 4 4 4 3 4 3 10 9 4 1 2 2
4 4 4 5 5 4 4 5 5 3 3 3 4 2 3 3 3 3 4 4 4 4 5 5 4 4 5 10 7 1 2 3
5 4 4 4 5 4 4 5 3 3 3 2 3 3 3 3 3 3 4 4 4 4 5 6 6 5 8 10 9 6 6 2
5 4 4 5 5 4 4 4 4 4 3 3 3 3 2 4 4 4 4 5 5 4 4 5 5 6 7 9 10 10 9 3
5 5 5 5 5 4 3 3 4 4 4 3 3 3 2 3 3 4 4 5 5 5 3 3 5 6 6 7 6 7 9 6
5 5 5 5 5 5 4 4 4 4 4 4 3 3 2 2 3 3 3 3 4 4 3 3 3 4 6 8 6 5 4 6
5 5 5 5 5 5 5 4 4 4 4 5 4 3 3 2 2 5 11 9 8 9 9 5 4 6 8 11 11 11 11 11
5 5 5 5 5 5 4 4 5 4 4 4 5 4 3 2 2 3 4 7 10 10 10 9 9 7 11 11 11 12 12 9
4 5 5 5 5 5 4 4 4 4 4 8 5 4 2 2 2 2 2 3 3 4 10 9 11 11 12 13 13 11 7 7
4 4 5 5 5 5 4 4 4 5 4 5 5 4 3 2 2 2 2 2 2 4 7 11 12 12 13 14 13 5 6 7
4 4 4 5 5 4 4 4 4 4 4 7 7 5 4 3 2 2 2 3 3 3 5 4 10 8 6 7 9 7 6 6
4 4 4 4 4 4 4 4 4 4 4 6 8 5 5 4 3 2 2 2 3 2 3 5 11 5 4 4 6 7 6 5
3 3 3 3 3 4 4 4 4 4 4 5 6 5 5 5 4 3 3 4 3 3 3 5 13 6 5 6 6 6 6 5

GFSFLT2_con_lsi_003.txt.gz
Lid_Strength_Index
4 3 3 3 3 2 2 1 1 1 1 1 1 1 1 1 1 0 -0 0 -0 0 0 0 0 0 0 0 0 1 1 1
4 4 3 3 2 2 2 2 1 1 1 1 1 1 1 1 0 0 0 0 0 0 0 0 0 0 0 0 0 1 1 1
4 4 3 3 3 2 2 1 1 1 1 1 1 1 0 0 1 0 0 0 0 0 0 0 0 0 0 0 0 1 1 1
4 4 3 3 3 2 2 2 1 1 1 1 1 1 1 1 1 1 0 0 0 0 0 0 0 0 7 4 1 1 1 1
4 4 3 3 2 2 2 2 1 1 1 1 1 1 1 1 1 1 1 1 0 1 1 0 1 0 8 7 5 0 1 1
4 3 3 2 2 2 1 1 1 1 1 1 1 1 1 1 1 1 1 1 1 1 1 0 0 0 8 8 6 0 1 1
3 3 2 2 2 1 1 1 1 1 2 1 1 1 1 1 1 1 1 1 1 1 1 1 1 1 9 9 3 1 1 1
3 2 2 2 2 1 2 2 2 2 1 1 1 1 1 1 1 1 1 1 1 1 1 0 3 1 10 9 3 1 1 1
2 2 3 2 2 1 2 2 2 1 1 1 1 0 1 0 1 0 1 1 1 1 1 1 0 1 3 10 7 1 1 1
3 3 3 2 2 2 2 2 1 1 1 1 1 1 1 1 1 1 1 1 1 1 1 1 1 0 5 10 9 5 4 1
2 3 3 2 2 2 2 2 1 1 1 1 1 1 1 1 1 1 1 1 1 2 2 2 2 1 0 9 10 9 7 1
2 3 3 3 2 2 1 1 1 1 1 1 1 1 1 1 1 1 1 1 1 2 2 2 2 1 1 0 1 2 8 3
2 3 3 3 2 2 1 1 1 1 1 1 1 1 1 1 1 1 1 0 2 1 1 1 2 2 1 3 2 1 0 2
3 2 2 2 2 2 1 1 1 1 2 2 2 1 1 1 1 1 11 9 9 10 8 2 1 5 10 10 9 9 10 10
3 3 2 2 2 2 1 1 1 1 2 1 1 2 1 1 2 2 2 5 9 10 9 9 8 5 10 11 12 12 12 9
2 2 2 2 2 2 1 1 1 1 1 5 1 1 1 1 1 1 1 2 2 2 8 6 10 10 11 13 12 9 5 5
2 2 2 3 3 2 2 2 1 1 1 1 1 1 1 1 1 1 1 1 2 2 1 8 9 12 13 14 13 3 2 1
3 3 2 3 3 2 2 1 1 1 1 5 3 1 1 1 1 1 1 1 1 1 2 1 2 6 3 3 5 3 1 1
2 2 2 2 2 2 2 2 1 1 2 2 4 1 1 1 1 1 1 1 1 2 1 1 7 1 1 1 1 1 1 1
2 2 2 1 1 2 2 2 1 1 1 2 3 2 2 2 1 1 1 1 1 1 1 1 11 1 1 1 1 1 1 0

GFSFLT2_con_lsi_006.txt.gz
Lid_Strength_Index
3 3 3 2 2 2 1 1 1 0 0 0 0 0 0 0 0 -0 -0 -0 -0 -0 -0 0 0 0 0 0 0 1 1 1
3 3 3 2 2 2 1 1 1 1 1 1 1 0 0 0 -0 -0 -0 -0 -0 -0 -0 -0 0 0 0 0 0 1 1 1
4 3 3 2 2 2 1 1 1 0 1 1 1 0 0 0 0 0 -0 -0 -0 -0 -0 -0 -0 0 0 0 1 0 1 1
4 3 3 3 2 2 1 1 1 1 1 1 1 1 0 0 0 0 0 0 0 -0 0 0 0 0 7 4 1 1 0 1
3 3 3 2 2 1 1 1 1 1 1 1 1 1 1 1 0 0 1 0 -0 0 0 0 0 0 7 7 6 0 0 1
3 3 2 2 1 1 1 1 1 1 1 1 1 1 1 1 1 1 0 0 0 1 0 0 0 0 8 8 6 -0 0 0
2 2 2 2 1 1 1 1 1 1 1 1 1 1 1 1 1 1 0 0 1 1 0 0 0 0 8 8 4 1 0 1
2 2 2 2 1 1 1 1 1 1 1 1 1 0 1 1 1 1 0 0 0 0 1 0 2 0 9 9 4 1 1 1
2 2 2 2 1 1 1 1 1 1 1 0 0 0 0 0 0 0 0 0 0 1 1 0 0 1 1 10 8 0 1 1
2 2 2 1 1 1 2 2 1 0 0 1 0 0 0 0 0 0 0 0 1 1 1 1 1 0 4 9 9 6 4 1
2 2 2 1 1 1 2 1 1 1 1 1 0 0 0 0 1 1 1 1 1 1 2 2 1 1 0 9 9 8 7 1
2 2 2 2 1 1 1 1 0 1 1 1 1 1 1 0 1 1 1 1 1 1 2 2 1 1 1 0 0 0 7 2
2 2 2 2 1 1 1 1 0 1 1 1 1 1 1 1 1 1 1 -0 1 1 1 1 1 2 1 2 2 0 0 2
2 2 2 2 1 1 1 0 0 1 1 1 1 1 1 1 1 1 11 8 7 8 6 3 0 5 8 9 8 9 10 9
2 2 2 1 1 1 1 1 0 1 1 1 1 1 1 1 1 2 2 4 9 10 9 8 7 6 9 9 11 11 11 8
2 2 2 1 1 1 1 1 1 1 1 6 1 1 1 1 1 1 1 2 2 1 7 6 9 10 10 11 12 9 3 4
2 2 2 2 2 1 1 1 1 1 1 1 1 1 1 1 1 1 1 1 1 1 1 6 8 12 12 13 11 1 1 1
3 3 2 2 2 1 1 1 1 1 1 4 3 1 1 1 1 1 1 1 1 1 1 1 1 4 2 1 3 1 1 1
2 2 2 1 1 1 1 1 1 1 1 1 3 1 1 1 1 1 1 1 1 1 1 1 7 1 1 1 1 1 1 0
2 2 1 1 1 1 1 1 1 1 1 1 1 1 1 1 1 1 1 1 1 1 1 1 10 1 1 1 1 0 0 -0

GFSFLT2_con_lsi_009.txt.gz
Lid_Strength_Index
3 3 3 3 2 2 2 1 1 1 1 1 1 0 0 0 0 0 -0 -0 -0 -0 -0 0 0 1 1 1 1 1 1 1
3 3 3 2 2 2 2 1 1 1 1 1 1 1 1 0 0 -0 -0 -0 -0 0 -0 0 0 1 0 1 1 1 1 1
4 3 3 3 2 2 1 1 1 1 1 1 1 0 0 0 0 0 -0 -0 0 0 0 0 0 0 1 0 1 1 1 1
3 3 3 3 2 2 1 1 1 1 1 1 1 1 1 1 0 1 1 1 1 0 0 1 1 1 7 5 2 1 1 1
3 3 3 2 2 1 2 1 1 1 1 1 1 1 1 1 1 1 1 1 0 0 0 1 1 0 7 8 6 0 1 1
3 3 2 2 1 1 1 1 1 1 1 1 1 1 1 1 1 1 1 0 1 1 0 1 1 1 7 8 7 0 0 0
2 2 2 1 1 1 1 1 1 1 1 1 1 1 1 1 1 1 0 1 1 1 1 1 1 0 8 9 4 1 1 1
2 2 2 1 1 1 1 1 1 2 1 1 1 1 1 1 1 1 0 0 1 1 1 0 2 0 8 10 5 1 1 1
2 2 2 1 1 1 2 1 2 1 1 1 1 0 0 0 0 0 0 0 0 1 1 0 0 1 1 9 9 0 1 1
2 2 2 1 1 1 2 2 1 1 1 1 1 0 1 1 0 0 0 0 1 1 1 1 1 0 4 9 9 7 5 1
2 2 2 1 1 1 2 1 1 1 1 1 1 1 0 0 1 1 1 1 2 2 2 2 2 1 0 8 8 9 7 1
2 2 2 2 1 1 1 1 1 1 1 1 1 1 1 1 1 1 1 1 1 2 2 3 2 1 1 0 0 1 7 3
2 2 2 2 1 1 1 1 1 1 1 1 1 1 1 1 1 1 1 -0 1 1 1 1 2 2 1 3 2 1 0 2
2 2 2 2 1 1 1 1 0 1 1 1 1 1 1 1 1 1 11 8 7 7 8 4 1 6 8 9 9 10 10 8
2 2 2 1 1 1 1 1 0 1 1 1 1 2 1 1 1 1 2 3 8 7 7 8 8 6 10 10 11 11 11 8
2 2 2 2 1 1 1 1 1 1 1 6 1 1 1 1 1 1 1 2 2 1 7 5 9 9 10 11 12 8 1 4
2 2 2 2 2 1 1 1 1 1 1 1 1 1 1 1 1 1 1 1 2 1 1 6 9 11 11 11 11 1 1 1
2 3 2 2 2 1 1 1 1 1 1 4 3 1 1 1 1 1 1 1 1 1 1 1 1 4 2 1 1 1 1 1
2 2 2 2 1 1 1 1 1 1 1 1 4 1 1 1 1 1 1 1 1 1 1 1 6 1 1 1 1 1 1 1
2 2 2 1 1 1 1 1 1 1 1 1 1 1 1 1 1 1 1 1 1 1 1 1 10 1 1 1 1 1 0 0

GFSFLT2_con_lsi_015.txt.gz
Lid_Strength_Index
5 5 4 4 4 3 3 3 3 3 2 2 2 2 2 2 2 1 2 2 2 1 1 1 1 1 1 2 2 2 2 2
5 5 5 4 4 4 3 3 3 2 2 2 2 2 2 2 2 1 2 2 2 1 1 1 1 1 1 1 1 1 2 2
5 5 5 4 4 3 3 3 3 2 2 2 2 2 1 2 1 1 2 2 1 1 1 1 2 2 2 2 1 1 1 2
5 5 4 4 4 4 3 3 3 2 2 2 2 2 2 2 2 2 1 2 1 1 1 2 3 2 8 6 2 1 1 2
5 5 4 4 4 4 3 3 3 2 2 2 2 2 2 2 2 2 2 2 2 2 2 3 4 4 9 9 7 1 1 2
4 4 4 4 4 3 3 3 3 3 2 2 2 2 2 2 2 2 2 2 2 2 2 3 4 4 9 10 7 2 1 1
4 3 3 4 4 3 3 3 3 3 3 2 2 2 2 2 2 2 2 2 2 2 2 3 4 4 9 11 4 1 2 2
4 3 4 4 4 3 3 4 3 3 2 2 2 2 2 2 2 2 2 2 2 2 2 3 4 4 9 10 5 1 2 3
3 3 4 4 4 3 4 4 4 3 2 2 2 2 2 2 2 2 2 2 2 2 2 3 2 4 6 10 9 2 2 2
3 3 4 4 3 3 4 4 3 2 2 2 2 2 2 2 2 2 2 2 3 3 3 3 2 3 7 10 10 5 4 2
3 3 4 4 4 3 3 3 2 3 3 2 2 2 2 2 2 3 3 2 3 3 3 3 3 3 5 9 9 8 6 3
3 4 5 5 4 3 2 2 2 2 3 2 3 2 2 2 2 3 3 3 3 3 3 3 3 3 4 4 5 5 7 6
3 4 4 5 4 3 2 3 2 3 3 2 3 2 2 3 3 4 3 3 2 3 3 2 3 3 3 5 4 3 3 5
4 3 4 4 4 3 2 3 2 3 3 3 3 3 2 2 5 5 11 10 11 8 7 3 2 5 9 9 8 9 9 8
5 4 3 4 4 3 2 2 2 2 3 3 3 4 3 3 3 4 6 6 10 13 10 9 7 8 9 10 11 10 10 7
4 4 4 3 4 4 3 2 2 2 3 7 3 4 3 3 3 3 4 5 5 6 9 9 11 11 10 11 12 10 6 6
5 5 4 4 3 3 3 3 2 2 2 3 3 3 3 3 3 3 3 5 4 4 6 8 12 13 12 12 11 3 3 3
6 7 5 3 4 3 2 3 4 2 2 5 5 3 3 3 3 3 4 4 4 5 5 4 8 8 7 7 6 3 3 2
6 5 5 4 5 4 1 2 3 3 2 3 5 3 3 3 3 4 3 3 3 4 5 5 9 4 4 3 4 3 2 3
4 5 5 5 6 6 3 7 6 3 2 3 4 3 3 4 4 3 4 4 3 3 4 5 13 3 2 2 2 2 2 2

GFSFLT2_con_lsi_021.txt.gz
Lid_Strength_Index
6 5 5 5 5 4 4 3 4 3 3 3 3 3 3 3 3 3 3 3 3 3 3 1 2 2 2 1 2 2 3 3
6 6 5 4 4 4 3 3 3 3 3 3 3 3 3 3 3 3 3 3 3 2 1 1 2 2 1 1 1 2 3 3
6 6 5 5 4 4 4 3 3 3 3 3 3 3 2 3 3 3 3 2 3 1 2 2 3 3 3 2 2 2 3 2
6 5 5 5 4 4 4 4 3 3 3 3 3 2 2 2 2 3 3 3 1 1 2 3 3 3 9 8 3 2 1 2
6 5 5 4 4 4 5 4 3 3 3 2 2 2 2 2 2 2 3 2 2 2 4 4 4 4 10 8 6 2 2 2
5 5 4 4 4 5 5 4 3 3 3 3 2 2 2 2 2 3 3 2 2 3 4 4 4 5 11 8 6 2 2 2
4 4 4 4 5 5 5 4 3 3 3 3 2 2 3 2 3 3 3 4 4 4 4 5 4 4 11 8 4 2 2 2
4 4 4 5 5 5 4 4 4 4 3 2 2 2 2 2 3 3 4 4 4 3 4 4 6 4 11 10 4 2 2 3
4 4 5 5 5 5 5 4 4 3 2 2 3 3 2 3 3 3 3 3 3 4 4 5 4 5 7 10 8 2 2 3
4 4 5 6 5 4 5 4 3 3 3 3 3 3 2 2 3 3 3 3 4 5 5 5 3 4 9 10 10 7 5 2
4 5 7 6 5 4 5 4 4 4 3 3 3 3 2 3 3 3 4 4 4 5 5 4 4 5 5 11 11 10 8 3
5 6 6 6 6 5 4 4 3 3 3 3 3 3 3 3 3 3 4 4 4 4 4 5 4 5 5 5 6 6 8 6
5 5 6 6 5 5 5 3 3 3 3 3 3 3 3 4 4 5 4 4 4 3 4 4 4 5 5 7 6 4 5 6
4 5 6 6 5 4 4 3 2 3 3 3 3 3 4 4 5 7 11 10 9 8 8 5 3 7 11 11 11 11 11 10
5 4 4 5 6 4 3 2 2 3 3 3 3 4 4 5 5 5 5 8 11 11 11 9 7 8 12 12 12 12 11 8
5 5 3 4 5 4 3 3 2 3 3 7 3 3 3 4 5 5 6 6 6 5 11 10 11 11 12 12 13 11 7 7
8 8 7 6 5 5 4 3 2 3 3 3 3 3 3 4 5 6 5 6 5 4 8 10 13 14 14 14 13 5 5 5
9 10 9 8 8 6 7 7 4 3 3 6 5 3 4 4 5 5 6 7 6 5 5 6 10 9 7 7 7 5 4 4
9 10 10 9 10 8 7 9 8 4 3 4 6 3 4 3 4 4 5 6 6 7 6 6 12 5 5 4 5 4 4 4
10 10 11 11 10 9 8 9 10 7 4 4 4 3 3 4 4 4 4 4 5 6 6 7 14 7 4 4 4 3 3 2

GFSFLT2_con_lsi_024.txt.gz
Lid_Strength_Index
6 6 6 6 6 5 5 4 4 3 3 3 3 3 3 3 3 2 1 2 2 2 1 1 1 1 1 1 1 1 1 1
6 6 6 6 5 4 4 4 3 3 2 3 3 3 3 3 3 2 2 2 2 1 1 1 1 1 1 1 1 1 2 1
6 6 6 5 5 4 4 3 3 3 2 2 3 2 2 2 2 2 2 2 2 1 1 2 2 2 3 2 1 1 2 2
6 5 5 5 4 4 3 3 3 2 2 3 2 2 2 2 2 2 2 2 1 1 2 2 2 3 9 7 3 1 1 1
6 5 5 4 4 3 4 3 2 2 3 2 2 2 2 2 2 2 2 2 1 2 2 2 2 3 10 8 6 1 1 1
5 5 4 4 4 4 4 3 3 3 3 2 2 2 2 2 2 2 2 1 2 2 3 3 3 5 10 8 7 1 2 2
5 4 4 4 4 4 4 4 3 3 3 3 2 2 2 2 2 2 2 2 2 3 3 3 3 3 10 8 4 2 2 2
4 4 4 5 5 5 5 4 3 3 3 2 2 2 2 2 2 2 2 2 2 3 3 3 5 3 10 9 4 2 3 3
4 4 5 5 6 5 5 4 3 3 2 2 2 2 2 2 2 2 2 2 2 3 3 3 2 4 6 10 7 2 3 3
4 4 5 5 5 5 4 4 3 2 2 2 2 2 2 2 2 2 2 2 3 3 4 3 3 3 9 10 10 7 6 3
4 4 6 6 5 4 4 3 3 3 3 3 3 2 2 2 2 3 3 3 3 4 4 3 3 3 5 11 11 10 8 3
4 5 6 7 5 5 4 4 3 3 3 3 3 2 3 2 2 2 3 3 3 3 3 4 3 3 4 4 5 5 8 6
5 5 5 6 6 5 5 3 3 3 3 3 3 3 2 3 3 3 3 2 3 3 3 3 3 3 3 6 5 3 3 6
5 5 5 6 6 5 4 3 2 2 3 3 3 3 3 3 4 5 12 10 9 9 9 5 2 8 11 12 11 12 11 9
5 5 5 5 6 5 4 2 2 2 3 3 3 3 3 3 3 3 4 7 11 11 12 10 8 9 13 13 12 12 12 8
6 5 5 6 6 6 4 2 2 2 2 7 2 2 3 3 3 3 3 4 4 4 11 10 12 13 13 13 13 10 4 4
7 7 8 8 8 7 6 5 2 2 2 2 2 2 3 4 4 3 4 4 4 3 6 9 13 14 14 14 12 3 3 3
10 10 10 9 9 7 7 7 4 2 2 6 5 2 3 3 4 4 4 4 4 3 3 4 8 7 5 6 6 4 3 2
9 10 10 9 10 7 7 7 7 5 3 3 6 2 2 2 3 4 4 4 5 4 3 4 12 3 3 3 4 4 3 3
11 11 10 10 10 8 7 8 8 6 4 3 3 2 2 2 3 2 3 4 4 4 4 5 14 4 3 3 3 2 2 2

GFSFLT2_con_lsi_027.txt.gz
Lid_Strength_Index
5 5 4 4 3 3 3 2 2 1 1 1 1 1 1 1 1 0 0 0 0 0 0 0 1 0 0 0 1 1 1 1
6 5 4 4 3 3 2 2 2 1 1 1 2 1 1 1 1 0 0 0 0 0 0 0 0 0 0 0 1 1 1 1
6 5 5 4 3 3 2 2 2 1 2 2 2 1 1 1 1 0 0 0 0 0 0 0 0 0 1 1 1 1 1 1
6 5 4 4 3 3 2 2 2 1 2 2 1 1 1 1 1 1 1 0 0 1 1 1 1 1 9 7 2 1 1 1
5 5 4 3 3 2 3 2 1 2 2 2 1 1 1 1 1 1 1 1 1 1 1 1 1 0 10 9 6 1 1 1
5 4 4 3 2 2 2 2 2 2 2 2 2 1 1 1 1 1 1 1 1 1 1 1 1 2 9 9 6 0 1 1
4 3 3 3 2 2 2 2 2 2 2 2 1 1 1 1 1 1 1 1 1 1 1 1 1 1 9 9 4 1 1 2
3 3 3 3 2 2 2 2 2 2 2 2 1 1 1 1 1 1 1 1 1 1 1 1 4 1 10 9 3 1 2 2
3 3 3 3 2 2 2 2 3 2 1 1 1 1 1 1 1 1 1 1 1 1 1 1 1 2 4 10 7 1 1 3
3 3 3 2 2 2 3 3 1 1 1 1 1 1 1 1 1 1 1 1 2 2 2 1 1 2 8 10 9 6 5 2
3 3 3 2 2 2 2 2 1 1 1 2 1 1 1 1 1 1 2 1 2 2 2 2 2 2 5 11 11 10 7 2
3 3 3 3 2 2 1 1 1 1 2 2 2 2 1 1 1 1 1 2 2 2 2 2 2 2 3 2 4 4 8 6
3 3 3 3 2 2 1 1 1 2 2 2 2 1 1 2 1 1 1 0 2 2 2 2 2 3 2 4 3 2 2 4
3 3 3 2 2 2 1 1 1 2 2 2 2 2 2 2 2 2 12 10 10 9 8 4 1 8 11 11 11 11 11 10
4 3 3 3 3 2 1 1 1 1 2 2 2 2 2 2 2 2 3 6 12 12 11 10 8 9 12 12 12 12 11 8
6 6 5 5 5 5 2 1 1 1 1 7 2 2 1 2 2 2 2 2 3 2 10 9 13 13 13 13 12 9 3 3
7 7 7 7 6 5 4 2 1 1 1 1 1 1 1 2 1 1 1 2 2 2 2 8 11 14 14 13 11 1 2 2
9 9 9 7 7 5 4 3 1 1 1 6 5 1 1 1 1 2 2 2 2 2 2 2 5 6 4 5 1 1 1 1
9 10 10 9 8 5 5 3 2 0 1 1 6 1 2 2 2 2 2 2 2 2 2 1 10 1 2 1 1 1 1 1
10 11 11 10 10 7 6 6 3 1 1 1 1 1 1 2 2 1 1 2 2 2 1 2 14 2 1 1 1 1 0 0

GFSFLT2_con_lsi_033.txt.gz
Lid_Strength_Index
5 4 3 3 3 2 2 2 2 1 1 1 1 2 1 1 1 0 0 0 0 -0 -0 0 0 0 0 0 0 0 1 1
5 5 4 3 3 3 2 2 1 1 1 1 2 2 1 1 0 0 0 0 0 0 -0 0 0 0 0 0 0 1 1 1
6 5 4 4 3 2 2 2 1 1 1 1 1 1 1 0 1 0 0 0 0 0 0 0 0 0 0 0 0 1 1 1
6 5 4 4 3 2 2 2 2 1 1 1 1 1 1 1 1 1 0 0 0 1 1 1 1 1 8 7 3 1 1 1
6 5 4 4 3 2 2 2 1 1 1 1 1 1 2 2 1 1 1 1 1 1 1 0 1 1 8 7 5 1 1 1
5 4 4 3 2 2 1 1 1 1 1 1 1 2 2 1 1 1 1 1 0 1 0 0 1 1 8 8 6 0 1 1
4 3 3 3 2 1 1 2 1 2 2 2 2 1 2 1 1 1 1 1 1 1 0 1 1 1 8 7 3 1 1 1
3 3 3 3 2 1 2 2 2 2 2 1 1 1 1 1 1 2 1 1 1 1 1 0 3 1 9 8 4 1 2 2
3 3 3 3 1 1 2 2 2 2 1 1 1 1 1 1 1 1 1 1 1 1 1 1 1 1 3 8 7 1 2 2
4 4 3 2 1 2 2 3 2 1 1 1 2 1 1 1 1 1 1 1 1 1 1 2 1 1 7 9 8 6 5 2
3 3 3 2 1 1 2 2 2 1 1 2 1 2 1 1 1 1 1 1 2 2 2 2 2 1 4 10 10 9 8 2
4 3 3 2 2 1 1 2 1 1 2 2 2 2 2 1 1 1 1 1 2 2 3 3 2 2 3 2 2 3 7 5
3 2 2 2 1 2 2 1 1 2 1 2 1 1 2 1 1 2 1 1 2 1 2 2 2 3 2 4 3 1 1 4
2 2 2 2 2 2 1 1 1 2 2 2 2 1 1 2 2 2 12 11 13 13 12 4 1 6 9 9 10 10 9 9
3 2 2 2 2 2 1 1 1 1 2 1 1 2 2 2 2 2 3 4 12 13 12 11 7 9 11 11 12 11 11 9
2 2 2 2 2 2 1 1 1 1 1 5 1 2 1 2 2 2 2 2 3 2 9 9 12 12 12 12 12 9 3 4
2 3 3 2 2 2 1 1 1 1 1 1 1 1 1 2 2 2 2 2 2 2 2 7 11 13 13 13 11 1 2 2
5 5 4 3 2 1 1 1 1 1 1 5 4 1 1 1 1 2 2 2 2 2 2 2 3 4 2 3 1 1 1 1
7 7 6 5 3 1 1 1 1 1 1 1 6 1 1 1 1 1 1 2 2 2 2 1 7 1 2 1 2 1 1 1
8 9 8 7 5 1 1 1 1 1 1 1 1 1 1 1 1 1 1 1 1 1 1 2 12 2 1 1 1 1 1 0

GFSFLT2_con_lsi_036.txt.gz
Lid_Strength_Index
5 4 4 4 4 3 3 3 3 2 2 2 2 2 2 2 2 1 1 1 1 1 1 1 1 1 1 1 1 1 1 1
5 5 5 4 4 3 3 3 2 2 2 2 2 2 2 2 1 1 1 1 1 1 1 1 1 1 1 1 1 1 1 1
6 5 5 4 4 3 3 3 2 2 2 2 2 2 2 1 1 1 1 1 1 1 1 1 1 1 1 1 1 1 1 2
5 5 5 5 4 3 3 3 2 2 2 2 2 2 2 2 1 1 1 1 1 1 1 1 1 2 9 7 3 1 1 1
5 5 5 4 4 3 3 2 2 2 2 2 2 2 2 2 1 1 1 2 1 1 1 1 1 2 8 7 6 1 1 1
5 4 4 3 3 2 2 2 2 2 2 2 2 2 2 2 2 2 2 2 2 2 2 1 1 3 8 7 5 1 1 1
4 4 3 3 3 2 2 2 2 2 2 2 2 2 2 2 2 2 2 2 1 1 1 1 2 2 8 7 3 1 1 1
4 4 3 3 3 2 2 2 2 3 2 2 2 1 2 2 2 2 1 1 1 1 2 1 4 1 8 7 4 2 3 3
3 4 4 3 2 2 3 3 3 2 1 2 2 2 2 2 2 1 1 1 2 2 2 1 1 1 4 8 7 1 2 2
3 4 4 3 2 2 3 3 2 1 1 2 2 1 1 1 2 1 1 2 2 2 2 2 1 1 7 8 8 6 5 2
4 3 4 3 2 2 3 2 2 2 2 2 2 2 2 1 2 2 2 2 2 3 3 3 2 2 4 10 10 8 8 2
4 4 4 3 2 2 2 2 1 2 2 2 2 2 2 2 1 1 2 2 2 3 3 3 2 3 2 3 3 4 7 6
4 4 3 3 2 2 2 1 2 2 2 2 2 2 2 2 5 6 2 5 3 2 2 2 3 3 2 4 3 2 2 5
4 4 3 2 2 2 2 1 2 2 3 2 2 2 2 2 2 3 12 12 13 13 10 3 1 7 10 11 10 9 9 10
4 4 2 2 2 2 1 1 1 2 2 2 2 3 2 2 2 3 3 7 12 13 13 10 8 9 12 11 10 11 11 9
3 2 2 2 2 2 1 1 1 2 2 6 2 2 2 2 2 2 2 3 3 3 10 10 12 12 12 12 12 9 4 4
3 3 2 2 2 2 1 1 1 2 2 2 2 2 2 2 2 2 2 2 2 3 4 8 11 13 13 13 12 1 2 2
5 6 5 4 3 2 2 1 1 1 2 6 5 2 2 2 2 2 2 2 3 3 2 3 5 4 3 4 3 2 2 2
6 6 6 5 5 3 2 2 2 1 1 2 6 2 2 2 2 2 2 2 2 2 2 2 8 2 2 2 2 2 1 1
8 8 8 6 6 4 2 3 3 1 2 1 2 2 2 2 2 2 2 2 2 2 2 4 12 1 2 2 2 1 1 1

GFSFLT2_con_lsi_042.txt.gz
Lid_Strength_Index
7 7 7 4 5 4 4 3 3 3 2 3 3 2 3 4 3 2 1 2 2 1 2 2 2 2 2 2 2 2 2 3
7 7 5 4 4 4 4 3 3 3 3 3 3 3 3 3 2 2 2 2 1 2 2 2 1 2 2 2 2 2 3 2
6 6 5 5 5 5 4 3 3 3 3 3 3 3 3 2 3 3 3 3 2 3 3 3 2 2 2 1 2 2 3 3
5 5 5 5 4 4 3 3 3 3 3 3 3 3 3 3 4 4 4 4 3 3 3 3 3 4 10 7 4 3 3 3
6 5 5 4 4 4 4 3 3 3 3 3 2 3 3 3 3 4 4 3 2 3 3 3 4 6 10 9 7 3 3 3
6 5 5 4 3 3 3 3 3 3 3 3 2 2 3 3 3 3 3 2 2 2 3 4 5 5 9 9 6 2 2 3
5 4 4 4 3 3 3 3 3 3 3 3 2 3 3 2 3 2 2 2 2 3 4 4 3 3 9 9 5 3 4 4
4 4 4 4 3 3 3 4 3 4 3 3 2 2 2 3 2 2 2 3 3 3 3 4 6 4 9 9 5 3 3 4
4 4 4 5 4 3 4 4 4 3 2 2 2 2 2 2 2 2 3 2 2 3 3 4 3 3 5 9 7 3 3 3
4 4 4 3 3 3 4 4 3 2 2 2 2 2 2 2 2 3 2 3 3 3 3 3 2 3 8 9 8 7 6 3
4 4 4 3 3 3 4 3 2 2 2 3 3 2 2 2 2 3 3 3 3 3 4 4 3 4 6 10 10 10 8 4
4 4 4 4 3 3 3 2 2 2 3 3 4 3 3 3 2 3 3 3 3 3 4 4 3 4 4 5 5 6 8 7
4 4 4 4 3 3 2 2 2 3 3 3 3 3 4 6 8 7 3 4 4 3 3 4 3 4 4 6 5 4 4 6
4 4 4 4 3 3 2 2 2 3 3 3 3 3 4 5 6 8 13 13 12 11 8 5 4 8 10 9 10 11 10 9
4 4 4 3 3 3 3 2 2 3 3 3 3 3 4 4 4 5 7 9 12 13 11 10 10 10 11 11 12 12 13 9
3 3 3 3 3 3 2 2 2 3 3 6 3 3 3 4 4 4 4 4 5 7 12 11 12 12 12 13 13 9 5 6
3 5 5 5 3 3 2 2 2 3 3 3 2 2 3 4 4 4 4 5 6 7 7 10 13 13 13 13 12 4 4 3
6 7 7 7 6 4 2 2 3 3 3 7 5 2 3 3 3 4 5 5 4 4 4 5 8 7 7 7 6 5 4 3
8 9 8 8 7 5 4 3 3 3 3 4 6 2 3 3 3 4 4 4 3 4 4 7 14 5 5 5 5 3 3 3
9 9 9 8 8 6 5 5 3 2 3 3 3 3 2 3 3 3 2 3 3 3 4 7 13 4 4 4 4 5 7 8

GFSFLT2_con_lsi_045.txt.gz
Lid_Strength_Index
6 6 7 7 5 5 4 4 5 3 3 3 3 3 2 3 3 2 2 3 2 2 2 2 2 2 3 3 3 3 3 3
6 6 7 4 4 4 4 4 4 3 3 3 3 3 2 2 2 3 3 2 3 2 2 2 2 2 2 2 2 3 3 3
6 6 5 5 4 4 4 4 3 3 3 3 3 2 2 2 3 2 2 2 2 2 3 3 3 3 2 3 2 3 3 3
6 5 5 5 4 4 4 4 3 3 3 3 3 3 3 3 2 2 3 3 3 3 4 3 4 4 8 6 3 3 3 3
6 5 5 4 4 4 5 4 3 3 3 3 4 4 4 4 4 4 4 4 4 4 5 5 5 6 10 9 7 3 3 4
6 5 5 4 4 4 4 6 6 3 3 3 3 3 4 4 4 4 4 4 4 4 4 4 5 6 10 10 7 3 4 3
5 4 4 4 4 3 3 4 4 3 3 3 3 4 4 4 4 3 3 3 4 5 4 4 4 4 10 10 5 4 4 3
6 4 4 4 4 3 4 4 4 4 3 3 3 3 3 3 3 3 3 3 3 3 4 3 5 4 11 10 6 4 4 4
5 4 4 4 3 3 4 4 4 3 3 3 3 3 2 2 3 2 2 3 4 4 4 4 3 5 7 10 8 3 3 4
5 4 4 3 3 3 4 4 3 4 3 3 3 2 2 2 2 2 2 4 4 4 4 3 3 3 8 9 9 7 6 3
4 4 4 4 3 3 4 4 3 3 3 3 3 2 2 2 2 3 3 3 4 4 4 3 3 4 6 11 11 10 8 4
4 4 5 4 3 3 3 3 3 3 3 3 3 3 3 2 2 2 3 4 4 4 3 3 4 4 4 5 5 6 8 8
4 4 4 4 3 3 3 3 2 3 3 3 3 3 3 6 8 7 3 5 4 4 3 3 3 4 4 6 6 4 4 6
4 4 4 4 3 3 3 2 2 3 3 3 4 4 4 6 6 7 13 12 10 10 8 6 5 9 10 11 11 11 11 9
4 4 4 3 3 3 2 2 2 3 3 4 4 5 5 5 5 5 7 10 13 12 13 11 10 10 11 12 12 13 11 7
4 4 4 3 3 4 3 3 2 3 3 7 3 3 4 4 4 4 4 3 5 7 12 11 13 13 13 12 12 9 5 5
4 5 6 3 3 4 2 2 2 3 3 3 3 4 4 5 4 4 3 4 5 6 7 10 13 14 13 12 10 4 4 4
7 8 7 7 6 6 2 2 3 3 3 8 6 4 4 4 4 4 5 5 5 4 4 7 8 7 6 6 4 4 3 3
8 8 8 8 8 6 3 3 3 3 3 4 7 3 3 4 4 4 4 4 4 4 5 7 13 5 5 5 4 6 6 5
8 9 11 10 9 6 6 4 3 3 3 3 3 3 3 4 4 4 4 4 4 4 5 8 14 4 4 6 8 9 9 9

GFSFLT2_con_lsi_048.txt.gz
Lid_Strength_Index
6 5 5 6 6 6 5 4 3 2 5 6 2 2 2 2 2 2 1 1 2 2 2 2 2 2 2 2 2 2 2 3
6 6 6 5 5 5 4 3 3 2 5 3 3 3 2 2 2 2 2 2 2 2 2 2 1 2 2 2 2 2 2 2
6 5 5 4 4 4 3 3 3 3 3 3 3 2 2 2 2 2 2 1 2 2 2 2 2 2 2 2 2 2 2 2
6 5 5 5 4 4 3 3 3 3 3 3 2 2 2 2 2 3 3 3 2 2 2 2 2 3 10 7 3 2 2 2
6 5 5 4 4 3 4 3 3 3 3 3 3 2 3 3 3 3 3 3 2 3 4 3 5 6 10 9 7 1 1 2
6 6 6 5 4 3 3 3 3 3 3 3 3 3 3 3 3 3 4 4 5 5 5 5 4 6 10 10 8 2 2 2
6 5 6 5 4 3 3 4 4 3 4 3 4 4 4 3 4 4 4 5 5 5 4 4 4 5 11 11 5 2 2 2
6 6 5 6 3 3 4 4 4 4 3 3 3 3 3 3 4 4 4 4 4 3 3 3 5 4 11 10 5 3 3 2
6 6 6 4 3 3 4 4 4 3 3 3 3 3 3 3 4 4 4 4 4 4 3 3 3 4 7 10 8 2 2 3
6 5 5 3 3 3 4 4 3 2 3 3 3 3 3 2 3 3 3 3 4 3 3 3 3 4 8 10 9 7 6 3
4 4 4 4 3 3 4 3 4 3 3 3 3 3 2 2 2 3 3 3 3 4 4 3 3 3 6 11 11 10 8 4
5 4 5 4 3 3 3 3 2 3 3 3 3 3 3 2 2 3 3 3 3 3 3 3 3 3 4 4 5 6 9 8
6 5 5 4 4 3 3 3 3 3 3 3 3 3 4 7 8 4 3 3 3 3 2 2 3 4 4 6 5 4 4 6
5 4 4 4 3 3 3 3 2 3 3 3 3 4 5 5 5 6 12 11 10 9 8 5 4 8 11 11 11 11 10 9
4 4 4 4 3 3 2 2 2 3 3 3 4 4 4 4 4 4 6 10 13 13 12 12 10 11 12 12 12 12 11 7
4 4 4 3 4 4 3 2 2 3 3 7 3 4 3 3 4 4 4 4 5 7 12 12 13 13 12 12 12 8 4 5
5 5 5 4 3 3 2 2 2 3 3 3 3 3 3 4 3 3 3 4 6 7 7 10 12 13 12 11 10 4 4 4
8 9 8 7 6 5 2 2 2 2 3 8 6 3 3 3 3 3 4 5 5 4 6 8 7 5 5 5 4 3 4 4
9 10 10 9 8 5 3 2 2 3 3 3 7 4 4 4 4 4 4 4 4 4 6 7 12 4 5 6 7 7 7 7
9 9 11 10 9 6 3 2 2 3 3 3 3 3 3 4 3 3 4 4 4 5 6 9 13 6 8 9 10 10 10 10